International Skating Union - Official Site

Essent ISU World Cup Calgary
November 8-10, 2013

Draw | Lap Times | Index | World Cup

Referee: Daniel  CABELDUC  (SWE)
Starter: Darrell  HAACK  (CAN)
StartTime: EndTime: Air Temp: Ice Temp: Humidity:
12:10 12:51 16℃ -7.7℃ 33
Result 3000m Ladies Division A
Rankings as of Nov 10 2013 7:25PM
Rank: No.: Name: Nation: Time: Behind: Points:
1 42 Claudia  Pechstein GER GER 3:59.04200m - 20.35 - (20.3)
600m - 51.04 - (30.6)
1000m - 1:22.16 - (31.1)
1400m - 1:53.47 - (31.3)
1800m - 2:24.91 - (31.4)
2200m - 2:56.23 - (31.3)
2600m - 3:27.76 - (31.5)
3000m - 3:59.04 - (31.2)
100
2 30 Martina  Sábliková CZE CZE 3:59.39200m - 20.36 - (20.3)
600m - 51.17 - (30.8)
1000m - 1:22.09 - (30.9)
1400m - 1:53.26 - (31.1)
1800m - 2:24.34 - (31.0)
2200m - 2:55.79 - (31.4)
2600m - 3:27.45 - (31.6)
3000m - 3:59.39 - (31.9)
0.35 80
3 90 Ireen  Wüst NED NED 3:59.68200m - 19.49 - (19.4)
600m - 50.20 - (30.7)
1000m - 1:21.37 - (31.1)
1400m - 1:52.33 - (30.9)
1800m - 2:23.18 - (30.8)
2200m - 2:54.61 - (31.4)
2600m - 3:26.90 - (32.2)
3000m - 3:59.68 - (32.7)
0.64 70
4 79 Antoinette  de Jong NED NED 4:00.56200m - 19.85 - (19.8)
600m - 49.78 - (29.9)
1000m - 1:20.55 - (30.7)
1400m - 1:51.87 - (31.3)
1800m - 2:23.40 - (31.5)
2200m - 2:55.31 - (31.9)
2600m - 3:27.80 - (32.4)
3000m - 4:00.56 - (32.7)
1.52 60
5 89 Jorien  Voorhuis NED NED 4:01.09200m - 19.84 - (19.8)
600m - 50.83 - (30.9)
1000m - 1:23.04 - (32.2)
1400m - 1:54.73 - (31.6)
1800m - 2:25.96 - (31.2)
2200m - 2:57.40 - (31.4)
2600m - 3:29.12 - (31.7)
3000m - 4:01.09 - (31.9)
2.05 50
6 84 Yvonne  Nauta NED NED 4:03.50200m - 20.32 - (20.3)
600m - 51.68 - (31.3)
1000m - 1:23.46 - (31.7)
1400m - 1:55.28 - (31.8)
1800m - 2:26.96 - (31.6)
2200m - 2:58.88 - (31.9)
2600m - 3:31.03 - (32.1)
3000m - 4:03.50 - (32.4)
4.46 45
7 94 Ida  Njåtun NOR NOR 4:04.67200m - 19.56 - (19.5)
600m - 50.15 - (30.5)
1000m - 1:21.66 - (31.5)
1400m - 1:53.56 - (31.9)
1800m - 2:25.89 - (32.3)
2200m - 2:58.46 - (32.5)
2600m - 3:31.42 - (32.9)
3000m - 4:04.67 - (33.2)
5.63 40
8 95 Katarzyna  Bachleda-Curus POL POL 4:05.18200m - 19.85 - (19.8)
600m - 50.44 - (30.5)
1000m - 1:21.19 - (30.7)
1400m - 1:52.65 - (31.4)
1800m - 2:24.58 - (31.9)
2200m - 2:57.22 - (32.6)
2600m - 3:30.87 - (33.6)
3000m - 4:05.18 - (34.3)
6.14 35
9 80 Linda  de Vries NED NED 4:05.24200m - 19.55 - (19.5)
600m - 50.74 - (31.1)
1000m - 1:22.25 - (31.5)
1400m - 1:54.44 - (32.1)
1800m - 2:26.74 - (32.3)
2200m - 2:59.64 - (32.9)
2600m - 3:32.39 - (32.7)
3000m - 4:05.24 - (32.8)
6.20 30
10 61 Nana  Takagi JPN JPN 4:06.00200m - 20.23 - (20.2)
600m - 51.95 - (31.7)
1000m - 1:23.74 - (31.7)
1400m - 1:55.21 - (31.4)
1800m - 2:27.03 - (31.8)
2200m - 2:59.46 - (32.4)
2600m - 3:32.29 - (32.8)
3000m - 4:06.00 - (33.7)
6.96 25
11 105 Olga  Graf RUS RUS 4:06.01200m - 21.14 - (21.1)
600m - 52.85 - (31.7)
1000m - 1:24.92 - (32.0)
1400m - 1:57.15 - (32.2)
1800m - 2:29.20 - (32.0)
2200m - 3:01.29 - (32.0)
2600m - 3:33.53 - (32.2)
3000m - 4:06.01 - (32.4)
6.97 21
12 69 Bo-Reum  Kim KOR KOR 4:07.93200m - 20.71 - (20.7)
600m - 52.16 - (31.4)
1000m - 1:23.84 - (31.6)
1400m - 1:55.44 - (31.6)
1800m - 2:27.69 - (32.2)
2200m - 3:00.45 - (32.7)
2600m - 3:34.15 - (33.7)
3000m - 4:07.93 - (33.7)
8.89 18
13 16 Brittany  Schussler CAN CAN 4:08.06200m - 20.92 - (20.9)
600m - 52.35 - (31.4)
1000m - 1:24.31 - (31.9)
1400m - 1:56.30 - (31.9)
1800m - 2:28.33 - (32.0)
2200m - 3:00.71 - (32.3)
2600m - 3:33.84 - (33.1)
3000m - 4:08.06 - (34.2)
9.02 16
14 110 Yuliya  Skokova RUS RUS 4:08.42200m - 20.13 - (20.1)
600m - 52.36 - (32.2)
1000m - 1:24.07 - (31.7)
1400m - 1:55.77 - (31.7)
1800m - 2:27.50 - (31.7)
2200m - 2:59.80 - (32.3)
2600m - 3:33.02 - (33.2)
3000m - 4:08.42 - (35.4)
9.38 14
15 37 Stephanie  Beckert GER GER 4:09.24200m - 21.50 - (21.5)
600m - 53.62 - (32.1)
1000m - 1:25.61 - (31.9)
1400m - 1:57.84 - (32.2)
1800m - 2:30.30 - (32.4)
2200m - 3:03.06 - (32.7)
2600m - 3:36.23 - (33.1)
3000m - 4:09.24 - (33.0)
10.20 12
16 7 Ivanie  Blondin CAN CAN 4:13.42200m - 20.76 - (20.7)
600m - 53.04 - (32.2)
1000m - 1:25.18 - (32.1)
1400m - 1:57.96 - (32.7)
1800m - 2:30.14 - (32.1)
2200m - 3:02.96 - (32.8)
2600m - 3:37.30 - (34.3)
3000m - 4:13.42 - (36.1)
14.38 10